Regional Weather Roundup
Issued by NWS

Home | Current Version | Previous Version | Text Only | Print | Product List | Glossary On
Versions: 1 2 3 4 5 6 7 8 9 10 11 12 13 14 15 16 17 18 19 20 21 22 23 24 25 26 27 28 29 30 31 32 33 34 35 36 37 38 39 40 41 42 43 44 45 46 47 48 49 50
000
ASUS44 KJAN 020010
RWRMS

MISSISSIPPI HOURLY WEATHER ROUNDUP
NATIONAL WEATHER SERVICE JACKSON MS
600 PM CST SUN FEB 01 2015

NOTE: "FAIR: INDICATES FEW OR NO CLOUDS BELOW 12,000 FEET WITH NO
SIGNIFICANT WEATHER AND/OR OBSTRUCTIONS TO VISIBILITY.

MSZ001>002-007>008-010>013-018>021-025>028-034>036-020100-
NORTHWEST MISSISSIPPI

CITY           SKY/WX    TMP DP  RH WIND       PRES   REMARKS
CLARKSDALE     CLOUDY    52  46  82 W13       29.83R
CLEVELAND      CLOUDY    55  52  90 NW13G22   29.83R
GREENWOOD      CLOUDY    58  53  84 VRB6      29.81R
6HR MIN TEMP:  58; 6HR MAX TEMP:  66; 6HR PCP:  0.08;

GREENVILLE     CLOUDY    56  51  84 NW15      29.83R
6HR MIN TEMP:  56; 6HR MAX TEMP:  66; 6HR PCP:  0.16;

GRENADA        MOCLDY    55  52  88 NW9G20    29.80R
OLIVE BRANCH   CLOUDY    48  48 100 W10G20    29.77R
OXFORD         CLOUDY    50  50 100 W8        29.79R
TUNICA         MOCLDY    52  43  71 W17G23    29.81R
$$

MSZ003>006-009-014>017-022>024-029>033-037>039-020100-
NORTHEAST MISSISSIPPI

CITY           SKY/WX    TMP DP  RH WIND       PRES   REMARKS
COLUMBUS AFB   MIX PCPN  60  58  92 S15G22    29.75S
6HR MIN TEMP:  51; 6HR MAX TEMP:  62; 6HR PCP:  0.05;

CORINTH        CLOUDY    55  52  88 W16G26    29.73R
GOLDN TRIANGLE RAIN      61  57  88 S6        29.75F FOG
STARKVILLE     TSTM      61  59  94 W5        29.78R
TUPELO         CLOUDY    59  56  89 W13G20    29.74R
6HR MIN TEMP:  52; 6HR MAX TEMP:  59; 6HR PCP:  0.28;

$$

MSZ040-058-020100-
CENTRAL MISSISSIPPI

CITY           SKY/WX    TMP DP  RH WIND       PRES   REMARKS
JACKSON INTL   TSTM      58  56  93 W8        29.84R
6HR MIN TEMP:  58; 6HR MAX TEMP:  70; 6HR PCP:  0.38;

JACKSON HAWKNS RAIN      57  56  96 W8        29.83R FOG
6HR MIN TEMP:  57; 6HR MAX TEMP:  72; 6HR PCP:  0.29;

MERIDIAN KEY   MOCLDY    63  58  83 S17       29.81F
6HR MIN TEMP:  59; 6HR MAX TEMP:  68; 6HR PCP: TRACE;

MERIDIAN NAS   CLOUDY    65  58  78 S10G21    29.80F
6HR MIN TEMP:  58; 6HR MAX TEMP:  69;

RAYMOND        LGT RAIN  57  54  88 MISG      29.83S
VICKSBURG      CLOUDY    59  55  87 NW8       29.85R
6HR MIN TEMP:  58; 6HR MAX TEMP:  73; 6HR PCP:  0.34;

$$

MSZ059>079-020100-
SOUTH MISSISSIPPI

CITY           SKY/WX    TMP DP  RH WIND       PRES   REMARKS
BROOKHAVEN       N/A     64  63  94 S7        29.83F
HATTIESBURG    PTCLDY    64  61  90 S7        29.86F
6HR MIN TEMP:  63; 6HR MAX TEMP:  74; 6HR PCP:  0.04;

MCCOMB         CLOUDY    65  62  90 SW12G18   29.84F
6HR MIN TEMP:  63; 6HR MAX TEMP:  66; 6HR PCP:  0.17;

NATCHEZ        CLOUDY    59  54  82 NW7       29.87R
6HR MIN TEMP:  59; 6HR MAX TEMP:  72; 6HR PCP:  0.29;

PINE BELT      PTCLDY    63  57  82 S9        29.86F
6HR MIN TEMP:  63; 6HR MAX TEMP:  70; 6HR PCP:  0.04;

$$

MSZ080>082-020100-
COASTAL MISSISSIPPI

CITY           SKY/WX    TMP DP  RH WIND       PRES   REMARKS
BILOXI         MOCLDY    62  62 100 W7        29.89S
6HR MIN TEMP:  62; 6HR MAX TEMP:  67;

PASCAGOULA     MOCLDY    62  61  96 SW6       29.90S
6HR MIN TEMP:  62; 6HR MAX TEMP:  68; 6HR PCP: TRACE;

GULFPORT       MOCLDY    64  61  90 S3        29.89R
6HR MIN TEMP:  64; 6HR MAX TEMP:  68;

$$


USA.gov is the U.S. government's official web portal to all federal, state and local government web resources and services.